Wind_Speed
12 14 16 18 20 21 23 23 24 25 27 27 27 28 29 33 36 38 40 44 47 51 56 61 66 70 74 78 81 83 84 85 85 82 78 73 69 67 64 63 61 59 57 56
13 15 17 19 21 23 25 25 25 26 27 27 27 27 29 33 36 39 42 46 50 55 60 65 69 74 77 80 82 83 85 85 82 78 74 70 67 65 63 61 59 58 56 54
15 16 19 20 22 23 25 25 26 26 27 28 29 27 30 34 37 41 45 49 54 58 63 68 72 76 79 80 82 83 84 82 78 74 70 66 64 62 60 58 56 54 52 50
15 18 19 21 22 23 24 25 26 26 27 29 31 32 32 36 40 44 48 52 56 61 66 71 74 76 78 80 82 83 81 78 75 71 68 66 64 61 59 56 53 51 48 46
16 19 20 21 23 24 25 26 26 26 27 28 31 33 36 39 43 47 51 54 59 64 68 71 74 76 78 80 81 81 78 75 72 69 67 65 64 61 58 55 51 48 45 44
17 19 20 22 23 24 25 26 26 26 27 29 32 35 38 42 45 49 52 56 61 66 69 71 74 76 78 79 80 78 75 72 69 67 66 64 63 60 56 53 49 45 43 41
19 20 21 21 22 23 24 26 27 29 30 32 35 37 40 43 47 50 54 58 63 66 68 71 74 76 77 78 78 75 73 70 68 66 65 63 61 58 56 52 49 45 43 41
18 19 20 21 21 23 24 26 28 31 33 33 34 38 41 45 48 52 56 59 63 67 70 73 74 76 77 78 76 73 70 68 66 65 63 62 60 58 56 53 50 47 44 42
18 19 19 20 21 23 25 26 28 31 34 35 37 40 43 47 50 53 56 60 65 68 71 73 74 76 77 76 74 71 68 66 65 63 62 61 59 58 55 53 51 48 47 45
19 19 20 20 21 23 25 28 30 32 36 39 40 41 45 47 50 54 58 62 66 69 71 73 74 76 76 74 71 69 67 65 64 62 61 60 59 57 56 54 52 50 50 49
20 20 20 21 22 23 25 27 29 31 34 39 43 43 45 48 51 55 59 64 67 69 71 73 74 75 74 72 69 67 65 63 62 61 60 60 59 58 57 56 54 54 53 52
22 21 20 21 22 23 25 27 29 32 35 38 42 44 46 49 52 56 60 64 67 70 71 72 73 73 72 69 67 65 63 62 61 60 60 59 59 58 58 57 56 56 56 55
24 23 22 22 22 23 25 27 29 32 35 38 41 43 47 49 53 57 61 65 68 69 71 72 72 71 69 67 65 63 62 61 60 60 59 59 59 59 58 58 58 58 58 58
26 26 26 25 25 26 26 28 30 33 36 38 40 43 46 50 53 57 62 65 68 69 70 71 70 70 68 66 64 62 61 60 59 59 59 59 59 59 59 59 60 61 61 60
27 27 28 28 28 28 28 29 31 33 36 38 40 43 46 50 54 58 62 65 68 69 69 69 69 68 67 64 62 61 60 59 59 59 59 59 59 60 60 61 62 63 63 62
28 28 29 28 28 28 27 29 31 33 36 38 40 43 47 50 54 58 62 66 67 67 68 68 68 67 65 62 60 59 59 59 58 58 58 58 59 60 61 62 64 65 64 62
29 30 31 30 30 29 29 31 33 34 37 39 41 44 48 51 55 59 63 65 66 66 66 67 66 66 63 61 59 58 58 58 57 57 57 58 60 61 61 63 64 66 65 62
30 32 34 35 34 33 34 35 36 36 38 40 42 45 48 52 56 59 63 64 65 65 66 66 65 64 62 60 58 58 58 57 56 56 57 58 59 60 61 63 64 66 66 62
31 34 36 38 38 36 37 38 39 40 39 42 44 46 49 53 56 59 62 63 64 64 65 64 64 62 60 58 57 56 56 56 55 55 56 57 59 60 61 62 64 65 65 63
30 33 36 38 40 41 42 41 41 43 42 45 46 47 50 52 55 58 61 63 63 64 64 64 63 61 59 57 55 55 55 54 54 55 56 57 58 59 60 62 64 65 65 64
30 33 37 39 41 42 45 44 44 43 45 47 47 48 50 52 55 58 61 62 62 63 63 63 62 60 58 56 54 54 53 53 53 54 56 57 57 58 60 62 63 65 65 64
31 35 38 42 44 45 47 46 45 45 46 46 47 48 50 52 55 58 60 61 62 62 62 62 61 59 56 55 53 53 52 52 52 53 55 56 57 57 58 60 61 63 63 63
29 33 37 40 42 44 47 47 46 46 46 47 47 48 50 52 55 58 60 61 61 61 61 61 60 58 56 54 52 51 51 51 51 52 53 54 56 56 57 58 59 60 61 61
29 32 36 40 43 45 48 48 48 47 47 47 48 49 50 52 55 57 59 60 60 60 60 60 59 57 55 53 51 50 50 50 50 51 51 52 54 55 55 56 57 58 59 59
30 33 36 39 43 45 48 49 49 49 48 48 48 49 51 52 54 57 59 59 59 59 59 59 58 56 54 52 50 49 48 49 49 49 50 51 52 53 54 56 56 57 58 59
28 32 36 39 43 46 48 50 50 50 49 49 49 50 51 53 54 57 58 59 59 58 58 58 57 55 53 51 50 48 48 48 48 48 49 49 50 52 53 54 55 57 57 57
Wind_Direction
290 295 300 303 306 309 312 317 322 325 326 327 327 328 325 323 322 324 325 325 325 327 328 327 327 327 326 326 324 323 322 321 319 318 318 317 315 314 312 310 308 305 302 298
299 302 305 308 312 317 321 325 327 327 327 327 329 331 325 323 324 326 327 329 331 331 330 329 329 329 328 326 325 324 323 322 321 321 321 320 319 318 316 315 312 309 306 302
309 312 314 317 320 322 324 326 327 328 329 329 329 331 327 326 328 330 332 334 333 332 331 330 331 330 328 327 325 325 324 324 324 324 323 323 322 321 319 317 314 311 308 304
316 317 320 322 323 324 325 327 328 330 331 332 329 330 331 331 332 334 335 335 334 333 332 332 331 330 328 327 327 326 326 326 326 326 326 325 324 323 322 320 318 315 313 309
323 323 324 325 325 326 327 329 331 332 332 331 329 332 335 335 336 336 336 335 334 333 333 333 331 330 329 329 328 328 328 328 328 328 328 328 327 326 326 324 322 319 316 313
329 329 328 328 328 329 329 331 332 332 333 334 336 336 336 337 337 336 336 336 335 335 334 332 332 331 330 330 330 330 330 330 330 330 330 330 330 329 329 327 325 323 319 316
335 335 333 332 331 331 332 332 333 335 338 340 339 338 338 337 337 338 337 336 336 335 334 334 333 332 332 331 332 332 331 332 332 332 332 332 332 332 331 330 327 325 321 318
340 338 337 335 334 334 335 336 336 337 338 339 339 340 338 338 339 338 337 336 336 336 336 335 334 333 333 333 333 333 333 334 334 334 334 334 335 334 333 332 330 327 324 320
350 346 343 341 339 338 337 338 338 336 336 338 342 341 338 339 339 338 337 337 337 338 337 336 335 335 335 335 335 335 335 335 336 336 336 337 336 336 336 334 332 328 325 321
358 352 349 346 343 341 339 338 338 337 337 338 341 342 340 339 338 337 337 338 339 339 338 337 337 336 336 336 336 337 337 337 338 338 338 339 338 338 337 336 333 330 326 321
4 358 353 349 345 340 338 337 337 337 338 337 338 341 338 338 337 337 339 340 341 340 339 339 338 338 337 337 338 339 339 339 339 340 340 341 341 340 339 338 335 332 329 324
9 3 357 352 346 341 338 337 337 338 338 338 337 338 338 338 338 339 341 341 341 341 341 340 339 339 339 339 339 340 340 341 341 342 343 343 343 343 341 340 338 335 332 328
12 7 1 355 348 342 339 340 339 339 338 337 337 338 337 338 340 341 342 342 342 342 342 341 340 340 340 340 341 341 342 343 344 344 345 346 345 345 344 343 341 339 336 332
15 9 3 358 351 347 344 343 341 339 338 338 338 337 338 340 341 342 343 343 344 343 343 342 341 341 341 341 342 343 344 345 346 347 348 348 348 348 347 347 346 344 341 339
16 11 5 0 354 349 347 344 341 339 338 338 339 339 340 342 343 343 344 344 345 344 343 342 342 342 342 343 343 344 345 347 348 350 350 350 350 351 351 351 350 349 348 346
17 13 8 3 357 352 348 345 344 342 340 341 341 341 342 343 344 344 345 346 345 345 343 343 343 343 344 344 345 346 347 349 351 352 352 353 353 354 354 354 355 355 354 353
15 13 11 7 2 356 353 351 348 345 343 343 343 343 344 345 345 346 346 346 346 345 344 344 344 345 345 346 347 348 350 351 353 354 354 355 356 357 357 358 359 360 360 360
13 11 10 8 5 1 356 353 350 349 346 346 345 345 346 346 346 347 347 346 346 346 345 345 346 346 347 348 349 350 352 354 355 356 356 357 359 360 1 1 3 4 5 6
11 8 7 6 5 2 357 354 351 350 350 348 347 347 347 347 347 347 347 347 347 347 347 347 347 348 348 349 351 352 354 356 357 357 359 0 1 2 3 5 6 8 9 11
9 7 5 5 3 1 358 356 352 350 351 349 348 348 347 347 347 347 348 348 348 348 348 348 349 349 350 351 352 354 356 358 358 360 1 3 4 5 6 8 9 11 12 14
5 5 4 3 2 0 358 356 352 351 350 350 349 348 347 348 348 348 348 349 349 349 350 350 350 351 351 352 354 356 357 359 360 2 3 5 6 7 8 10 12 13 15 16
360 1 1 0 360 358 356 354 352 350 350 349 349 348 348 348 348 349 349 350 350 350 351 351 352 352 353 354 355 357 359 0 2 3 5 6 8 9 10 12 13 15 17 18
355 357 357 357 356 354 354 353 351 350 349 349 349 349 348 348 349 349 350 350 351 351 352 352 353 353 354 355 356 358 360 1 3 5 6 7 9 10 11 13 14 16 18 19
347 351 352 353 354 353 353 353 352 351 349 349 350 349 349 349 349 350 351 351 352 352 352 353 353 354 355 356 357 359 0 2 4 6 7 8 9 10 12 13 15 16 18 20
340 345 348 349 350 351 351 352 351 350 349 349 350 350 349 349 350 350 351 352 352 353 353 354 354 355 356 356 358 359 1 2 4 6 7 9 10 11 11 13 14 16 18 20
333 339 343 345 347 349 350 350 351 350 349 349 349 350 350 350 350 351 351 352 353 353 354 354 355 355 356 357 358 359 1 2 4 6 8 9 10 11 12 13 14 15 18 19
Height
5898 5898 5895 5893 5890 5888 5885 5882 5878 5873 5869 5865 5861 5856 5851 5844 5839 5833 5827 5819 5810 5800 5789 5777 5765 5752 5738 5724 5709 5695 5680 5664 5649 5634 5619 5605 5591 5577 5564 5552 5542 5533 5524 5517
5897 5895 5893 5890 5887 5884 5880 5877 5873 5870 5865 5861 5857 5853 5847 5840 5834 5828 5820 5811 5800 5789 5778 5766 5753 5739 5725 5710 5695 5679 5663 5647 5631 5616 5602 5588 5574 5561 5549 5537 5526 5517 5508 5500
5895 5893 5890 5887 5884 5880 5876 5873 5870 5866 5862 5857 5853 5850 5843 5836 5829 5821 5812 5802 5791 5780 5768 5756 5742 5727 5712 5697 5681 5665 5648 5631 5616 5601 5588 5575 5562 5549 5537 5526 5514 5503 5494 5486
5893 5890 5887 5884 5881 5877 5873 5870 5866 5862 5858 5853 5848 5844 5838 5830 5822 5813 5804 5794 5783 5771 5759 5745 5731 5717 5701 5685 5667 5650 5633 5617 5602 5588 5575 5562 5550 5538 5525 5513 5502 5491 5481 5474
5890 5887 5884 5881 5877 5873 5870 5866 5862 5858 5853 5849 5843 5838 5833 5824 5815 5806 5797 5786 5775 5763 5749 5736 5722 5706 5689 5672 5655 5637 5620 5604 5589 5575 5562 5549 5536 5524 5512 5501 5490 5480 5471 5463
5887 5884 5881 5877 5874 5870 5866 5862 5858 5854 5850 5846 5839 5832 5825 5817 5809 5800 5790 5779 5767 5754 5741 5727 5711 5694 5677 5660 5643 5626 5609 5594 5579 5565 5551 5538 5526 5513 5502 5491 5481 5471 5462 5454
5884 5881 5878 5874 5870 5867 5863 5859 5854 5849 5844 5840 5833 5826 5820 5811 5803 5793 5783 5771 5759 5747 5733 5718 5701 5685 5667 5650 5633 5616 5600 5585 5570 5556 5542 5528 5515 5503 5491 5481 5471 5462 5453 5445
5882 5879 5875 5871 5867 5863 5859 5855 5850 5844 5839 5835 5829 5821 5815 5805 5796 5786 5776 5764 5752 5739 5723 5708 5692 5675 5657 5640 5623 5607 5591 5576 5561 5547 5533 5520 5506 5494 5482 5471 5461 5451 5443 5435
5880 5876 5872 5868 5864 5860 5856 5851 5847 5841 5835 5829 5824 5817 5807 5798 5790 5780 5770 5758 5745 5730 5714 5698 5682 5664 5647 5630 5614 5598 5583 5568 5553 5539 5526 5512 5499 5486 5474 5462 5451 5441 5432 5423
5877 5873 5869 5865 5861 5857 5853 5847 5843 5837 5829 5823 5818 5811 5803 5793 5784 5775 5763 5750 5736 5721 5706 5689 5672 5655 5638 5622 5605 5589 5574 5560 5546 5532 5518 5505 5491 5478 5466 5454 5442 5431 5421 5411
5875 5872 5867 5863 5858 5854 5850 5845 5839 5834 5827 5819 5811 5809 5799 5789 5779 5768 5756 5742 5728 5713 5697 5681 5664 5647 5630 5614 5598 5583 5568 5554 5540 5526 5512 5498 5485 5471 5458 5445 5433 5421 5409 5397
5874 5870 5865 5861 5856 5851 5847 5842 5836 5831 5824 5815 5808 5804 5793 5783 5773 5761 5748 5735 5721 5705 5689 5672 5656 5639 5623 5607 5592 5577 5563 5549 5535 5521 5507 5492 5479 5465 5451 5438 5424 5411 5397 5383
5872 5868 5864 5859 5856 5851 5844 5838 5832 5826 5819 5812 5804 5800 5787 5777 5766 5754 5742 5728 5713 5698 5682 5665 5649 5633 5617 5602 5587 5573 5558 5544 5530 5516 5502 5487 5474 5460 5445 5431 5416 5401 5386 5370
5871 5866 5862 5857 5851 5845 5840 5835 5828 5822 5815 5808 5800 5792 5782 5771 5760 5748 5735 5721 5706 5691 5675 5659 5643 5628 5612 5597 5582 5568 5554 5540 5526 5512 5497 5483 5469 5454 5439 5424 5409 5392 5375 5358
5870 5865 5859 5853 5847 5842 5836 5831 5825 5818 5811 5804 5796 5787 5777 5765 5754 5742 5729 5715 5700 5685 5670 5654 5639 5624 5608 5592 5578 5564 5550 5536 5522 5508 5493 5479 5465 5450 5435 5419 5403 5385 5366 5347
5869 5864 5858 5853 5846 5840 5834 5829 5822 5815 5807 5799 5791 5781 5771 5760 5749 5736 5723 5709 5695 5680 5665 5650 5635 5619 5604 5589 5575 5561 5547 5533 5518 5504 5491 5476 5462 5447 5431 5415 5398 5380 5361 5342
5868 5862 5857 5851 5845 5839 5832 5826 5819 5811 5803 5794 5785 5777 5765 5755 5743 5731 5718 5704 5690 5676 5661 5646 5631 5615 5600 5586 5572 5558 5544 5530 5516 5502 5489 5475 5460 5445 5429 5413 5396 5378 5359 5340
5866 5860 5854 5848 5843 5835 5831 5821 5814 5807 5799 5790 5780 5771 5760 5750 5738 5726 5713 5700 5686 5672 5657 5642 5626 5611 5596 5582 5568 5554 5541 5527 5514 5501 5488 5474 5459 5444 5429 5413 5396 5378 5359 5341
5863 5857 5851 5845 5838 5833 5826 5818 5809 5802 5795 5785 5776 5766 5755 5744 5733 5722 5709 5696 5682 5668 5653 5638 5623 5608 5593 5579 5566 5553 5539 5526 5514 5501 5488 5474 5459 5445 5430 5414 5398 5380 5363 5345
5862 5856 5850 5843 5835 5829 5824 5814 5805 5798 5790 5781 5771 5761 5751 5740 5730 5719 5705 5691 5678 5664 5649 5634 5620 5605 5590 5577 5564 5551 5539 5526 5514 5501 5488 5474 5460 5445 5431 5416 5399 5383 5366 5350
5859 5854 5847 5840 5833 5826 5819 5809 5801 5794 5787 5776 5766 5756 5746 5736 5726 5714 5700 5687 5674 5660 5646 5632 5617 5603 5589 5575 5563 5550 5538 5526 5513 5500 5487 5474 5461 5447 5433 5418 5403 5387 5371 5356
5855 5849 5843 5836 5828 5824 5815 5806 5799 5791 5781 5771 5761 5752 5742 5731 5720 5709 5696 5683 5670 5657 5643 5629 5615 5601 5587 5574 5562 5550 5538 5526 5513 5501 5488 5476 5463 5450 5437 5423 5408 5394 5380 5366
5852 5847 5841 5835 5830 5821 5812 5803 5795 5786 5777 5767 5757 5748 5738 5727 5716 5705 5693 5680 5667 5653 5640 5626 5613 5599 5586 5574 5561 5550 5538 5526 5514 5502 5490 5478 5466 5454 5441 5429 5415 5402 5388 5375
5849 5844 5839 5832 5826 5818 5809 5800 5791 5782 5773 5763 5754 5744 5734 5724 5713 5701 5689 5676 5664 5650 5637 5624 5611 5597 5585 5573 5561 5550 5538 5527 5516 5504 5493 5481 5470 5458 5446 5434 5421 5409 5396 5383
5844 5839 5834 5828 5822 5814 5805 5796 5787 5778 5769 5759 5750 5740 5730 5720 5709 5697 5685 5673 5660 5648 5635 5622 5609 5596 5584 5572 5561 5550 5539 5528 5517 5506 5495 5484 5473 5461 5450 5438 5426 5414 5402 5389
5841 5836 5830 5824 5818 5810 5802 5793 5784 5775 5765 5755 5746 5736 5726 5716 5705 5694 5682 5670 5658 5645 5633 5620 5608 5595 5583 5572 5561 5550 5540 5530 5519 5509 5498 5487 5477 5465 5454 5442 5429 5418 5407 5395